Weather History for Lewisburg, WV

Change the Weather History Date:

Tuesday, February 12, 2013

  Actual Average Record
Temperature  
Mean Temperature 39 °F 31 °F  
Max Temperature 46 °F 42 °F 60 °F (1984)
Min Temperature 32 °F 20 °F -3 °F (1981)
Degree Days  
Heating Degree Days 26    
Month to date heating degree days  
Since 1 July heating degree days  
Cooling Degree Days 0    
Month to date cooling degree days  
Year to date cooling degree days  
Moisture  
Dew Point 16 °F    
Average Humidity 45    
Maximum Humidity 64    
Minimum Humidity 23    
Precipitation  
Precipitation 0.00 in 0.10 in 0.75 in (1975)
Month to date precipitation 1.26  
Year to date precipitation 4.41  
Snow  
Snow 0.00 in - - ()
Month to date snowfall  
Since 1 July snowfall  
Snow Depth -    
Sea Level Pressure  
Sea Level Pressure 30.00 in    
Wind  
Wind Speed 8 mph (WNW)    
Max Wind Speed 15 mph    
Max Gust Speed 24 mph    
Visibility 10 miles    
Events      
T = Trace of Precipitation, MM = Missing Value Source: NWS Daily Summary

Daily Weather History Graph

Daily Weather History Graph

Search for Another Location

Airport:

Trip Planner

Search our weather history database for the weather conditions in past years. The results will help you decide how hot, cold, wet, or windy it might be!

Date:

Astronomy

Feb. 12, 2013 Rise Set
Actual Time 7:14 AM EST 5:57 PM EST
Civil Twilight 6:47 AM EST 6:24 PM EST
Nautical Twilight 6:16 AM EST 6:55 PM EST
Astronomical Twilight 5:46 AM EST 7:26 PM EST
Moon 8:14 AM EST (2/12) 8:52 PM EST (2/12)
Length of Visible Light 11h 37m
Length of Day
10h 43m
Waxing Crescent, 7% of the Moon is Illuminated
Feb 12
Waxing Crescent
Feb 17
First Quarter
Feb 25
Full
Mar 4
Last Quarter
Mar 11
New

Hourly Weather History & Observations

Time (EST) Temp. Windchill Dew Point Humidity Pressure Visibility Wind Dir Wind Speed Gust Speed Precip Events Conditions
12:15 AM 37.4 °F 30.8 °F 17.6 °F 45% 30.01 in 10.0 mi West 9.2 mph 24.2 mph N/A   Clear
12:35 AM 35.6 °F 26.2 °F 17.6 °F 48% 30.00 in 10.0 mi West 15.0 mph 23.0 mph N/A   Clear
12:55 AM 35.6 °F 30.7 °F 17.6 °F 48% 29.99 in 10.0 mi NW 5.8 mph 17.3 mph N/A   Clear
1:15 AM 35.6 °F 28.6 °F 19.4 °F 52% 30.01 in 10.0 mi West 9.2 mph 21.9 mph N/A   Clear
1:35 AM 35.6 °F 28.6 °F 19.4 °F 52% 30.01 in 10.0 mi West 9.2 mph 19.6 mph N/A   Clear
1:55 AM 35.6 °F 28.0 °F 19.4 °F 52% 30.01 in 10.0 mi WNW 10.4 mph 16.1 mph N/A   Clear
2:15 AM 33.8 °F 29.6 °F 19.4 °F 56% 30.02 in 10.0 mi WNW 4.6 mph 18.4 mph N/A   Clear
2:35 AM 33.8 °F 27.7 °F 19.4 °F 56% 30.03 in 10.0 mi West 6.9 mph - N/A   Clear
2:55 AM 33.8 °F 27.0 °F 19.4 °F 56% 30.03 in 10.0 mi NW 8.1 mph - N/A   Clear
3:15 AM 33.8 °F 27.7 °F 19.4 °F 56% 30.03 in 10.0 mi WNW 6.9 mph - N/A   Clear
3:35 AM 32.0 °F 26.4 °F 19.4 °F 60% 30.03 in 10.0 mi NW 5.8 mph - N/A   Clear
3:55 AM 32.0 °F 24.8 °F 19.4 °F 60% 30.02 in 10.0 mi NW 8.1 mph - N/A   Clear
4:15 AM 32.0 °F 27.5 °F 19.4 °F 60% 30.03 in 10.0 mi WNW 4.6 mph - N/A   Clear
4:35 AM 32.0 °F 24.2 °F 19.4 °F 60% 30.03 in 10.0 mi WNW 9.2 mph - N/A   Clear
4:55 AM 32.0 °F 24.8 °F 19.4 °F 60% 30.03 in 10.0 mi WNW 8.1 mph - N/A   Clear
5:15 AM 32.0 °F 26.4 °F 19.4 °F 60% 30.03 in 10.0 mi WNW 5.8 mph - N/A   Clear
5:35 AM 32.0 °F 26.4 °F 19.4 °F 60% 30.04 in 10.0 mi WNW 5.8 mph - N/A   Clear
5:55 AM 32.0 °F 24.8 °F 19.4 °F 60% 30.04 in 10.0 mi WNW 8.1 mph - N/A   Clear
6:15 AM 32.0 °F 24.8 °F 19.4 °F 60% 30.05 in 10.0 mi WNW 8.1 mph 17.3 mph N/A   Clear
6:35 AM 32.0 °F 23.6 °F 19.4 °F 60% 30.05 in 10.0 mi WNW 10.4 mph 19.6 mph N/A   Clear
7:15 AM 32.0 °F 23.6 °F 19.4 °F 60% 30.05 in 10.0 mi West 10.4 mph 17.3 mph N/A   Clear
7:35 AM 32.0 °F 23.0 °F 19.4 °F 60% 30.05 in 10.0 mi West 11.5 mph 17.3 mph N/A   Clear
7:55 AM 32.0 °F 23.6 °F 19.4 °F 60% 30.07 in 10.0 mi West 10.4 mph - N/A   Clear
8:15 AM 32.0 °F 25.6 °F 19.4 °F 60% 30.08 in 10.0 mi West 6.9 mph - N/A   Clear
8:35 AM 32.0 °F 25.6 °F 21.2 °F 64% 30.09 in 10.0 mi WNW 6.9 mph - N/A   Clear
8:55 AM 32.0 °F 24.8 °F 19.4 °F 60% 30.08 in 10.0 mi West 8.1 mph 19.6 mph N/A   Clear
9:15 AM 32.0 °F 27.5 °F 19.4 °F 60% 30.08 in 10.0 mi WNW 4.6 mph 19.6 mph N/A   Clear
9:35 AM 33.8 °F 25.8 °F 17.6 °F 52% 30.08 in 10.0 mi West 10.4 mph - N/A   Clear
9:55 AM 33.8 °F 27.0 °F 17.6 °F 52% 30.07 in 10.0 mi West 8.1 mph 17.3 mph N/A   Clear
10:15 AM 35.6 °F 28.6 °F 17.6 °F 48% 30.07 in 10.0 mi West 9.2 mph - N/A   Clear
10:35 AM 35.6 °F 28.0 °F 14.0 °F 41% 30.08 in 10.0 mi West 10.4 mph 21.9 mph N/A   Clear
10:55 AM 37.4 °F 30.8 °F 14.0 °F 38% 30.07 in 10.0 mi WNW 9.2 mph 16.1 mph N/A   Clear
11:15 AM 39.2 °F 33.0 °F 14.0 °F 36% 30.07 in 10.0 mi WNW 9.2 mph - N/A   Clear
11:35 AM 39.2 °F 32.0 °F 12.2 °F 33% 30.05 in 10.0 mi WNW 11.5 mph 19.6 mph N/A   Clear
11:55 AM 41.0 °F 34.3 °F 12.2 °F 31% 30.04 in 10.0 mi West 11.5 mph 19.6 mph N/A   Clear
12:15 PM 41.0 °F 34.3 °F 12.2 °F 31% 30.01 in 10.0 mi West 11.5 mph 17.3 mph N/A   Clear
12:35 PM 42.8 °F 38.6 °F 12.2 °F 29% 30.00 in 10.0 mi WNW 6.9 mph - N/A   Clear
12:55 PM 42.8 °F 36.6 °F 12.2 °F 29% 29.98 in 10.0 mi West 11.5 mph - N/A   Clear
1:15 PM 44.6 °F 40.7 °F 12.2 °F 27% 29.92 in 10.0 mi West 6.9 mph - N/A   Clear
1:35 PM 44.6 °F 41.4 °F 12.2 °F 27% 29.90 in 10.0 mi North 5.8 mph - N/A   Clear
1:55 PM 44.6 °F 38.4 °F 12.2 °F 27% 29.97 in 10.0 mi West 12.7 mph 18.4 mph N/A   Clear
2:15 PM 46.4 °F 40.7 °F 10.4 °F 23% 29.98 in 10.0 mi West 12.7 mph 17.3 mph N/A   Clear
2:35 PM 46.4 °F 41.5 °F 10.4 °F 23% 29.98 in 10.0 mi West 10.4 mph - N/A   Clear
2:55 PM 46.4 °F 42.4 °F 10.4 °F 23% 29.98 in 10.0 mi WNW 8.1 mph - N/A   Clear
3:15 PM 46.4 °F 41.5 °F 10.4 °F 23% 29.98 in 10.0 mi West 10.4 mph - N/A   Clear
3:35 PM 44.6 °F 39.7 °F 10.4 °F 25% 29.97 in 10.0 mi WNW 9.2 mph - N/A   Clear
3:55 PM 44.6 °F 39.7 °F 8.6 °F 23% 29.98 in 10.0 mi WNW 9.2 mph 16.1 mph N/A   Clear
4:15 PM 44.6 °F 41.4 °F 10.4 °F 25% 29.99 in 10.0 mi WNW 5.8 mph - N/A   Clear
4:35 PM 44.6 °F 41.4 °F 10.4 °F 25% 30.01 in 10.0 mi WNW 5.8 mph - N/A   Clear
4:55 PM 42.8 °F 40.1 °F 12.2 °F 29% 30.00 in 10.0 mi NW 4.6 mph - N/A   Clear
5:15 PM 42.8 °F 41.1 °F 12.2 °F 29% 29.98 in 10.0 mi NNW 3.5 mph - N/A   Clear
5:35 PM 42.8 °F 41.1 °F 12.2 °F 29% 29.99 in 10.0 mi NNW 3.5 mph - N/A   Clear
5:55 PM 41.0 °F - 12.2 °F 31% 29.98 in 10.0 mi Calm Calm - N/A   Clear
6:15 PM 41.0 °F 39.0 °F 12.2 °F 31% 29.97 in 10.0 mi NW 3.5 mph - N/A   Clear
6:35 PM 41.0 °F 39.0 °F 12.2 °F 31% 29.96 in 10.0 mi NNW 3.5 mph - N/A   Clear
6:55 PM 39.2 °F - 14.0 °F 36% 29.95 in 10.0 mi Calm Calm - N/A   Clear
7:15 PM 37.4 °F - 14.0 °F 38% 29.95 in 10.0 mi Calm Calm - N/A   Clear
7:35 PM 37.4 °F - 14.0 °F 38% 29.93 in 10.0 mi Calm Calm - N/A   Clear
7:55 PM 37.4 °F - 12.2 °F 36% 29.93 in 10.0 mi Calm Calm - N/A   Clear
8:15 PM 37.4 °F - 12.2 °F 36% 29.95 in 10.0 mi Calm Calm - N/A   Clear
8:35 PM 37.4 °F - 14.0 °F 38% 29.95 in 10.0 mi Calm Calm - N/A   Clear
9:15 PM 37.4 °F - 15.8 °F 41% 29.96 in 10.0 mi Calm Calm - N/A   Scattered Clouds
9:55 PM 33.8 °F - 19.4 °F 56% 29.95 in 10.0 mi Calm Calm - N/A   Clear
10:15 PM 35.6 °F - 19.4 °F 52% 29.95 in 10.0 mi Calm Calm - N/A   Clear
10:35 PM 33.8 °F - 19.4 °F 56% 29.94 in 10.0 mi Calm Calm - N/A   Clear
10:55 PM 32.0 °F - 17.6 °F 55% 29.93 in 10.0 mi Calm Calm - N/A   Clear
11:15 PM 32.0 °F - 21.2 °F 64% 29.93 in 10.0 mi Calm Calm - N/A   Clear
11:35 PM 32.0 °F - 19.4 °F 60% 29.93 in 10.0 mi Calm Calm - N/A   Clear
11:55 PM 32.0 °F - 21.2 °F 64% 29.92 in 10.0 mi Calm Calm - N/A   Clear